Find Starlink 5256

NORAD ID: 54175 Int'l Des: 2022-141 Owner: SPXS Country: US Constellation: starlink operational
LEOCIRCULAR

Live Position

Loading 3D Globe...

About Starlink 5256

Description loading...

Upcoming Passes

Passes for default location (London). Set your location on the main map for personalized predictions.

Altitude History

Loading altitude history...

Two-Line Element Set

1 54175U 22141U 26122.25276986 .00000931 00000-0 76555-4 0 9995
2 54175 53.2163 123.6777 0001373 80.2856 279.8291 15.08850936193949
Epoch: May 2, 2026 • Age: 20 hours

Current Status

Altitude 547.9 km
Velocity 7.59 km/s
Sub-Earth Point -25.78°S, 68.75°E
Launch Date Oct 28, 2022
Age 3.5 years
Type internet

Technical Details

Classification Payload
Mass 305.00 kg
Dry Mass 290.00 kg
Total Mass 305.00 kg
Length 0.20 m
Diameter 2.80 m
Span 9.00 m
Shape Box + pan
Manufacturer SPXS
Bus Type Starlink
Phase Status In Orbit
Owner/State SPXS/US

Most Searched